Flag for China Weather past 2 weeks in Shenzhen, China

Now
79 °F

Passing clouds.


Feels Like: 82 °F
Forecast: 70 / 86 °F
Wind: 10 mph from Southwest

Location: Shenzhen Airport


UV Index: 7 (High)

Visibility: N/A


Pressure: 29.89 "Hg

Humidity: 79%

Dew point: 72 °F

Location of ShenzhenLocation

Historic Weather in Shenzhen

°F

Shenzhen temperature yesterday

Maximum temperature yesterday: 79 °F (at 1:00 PM)
Minimum temperature yesterday: 72 °F (at 5:00 AM)
Average temperature yesterday: 76 °F

Past Weeks' High & Low Weather Summary

 TemperatureHumidityPressure
High82 °F (Apr 13, 12:00 PM)94% (Apr 2, 6:00 PM)30.09 "Hg (Apr 2, 6:00 PM)
Low63 °F (Apr 5, 6:00 AM)45% (Apr 15, 1:00 PM)29.80 "Hg (Apr 12, 5:00 PM)
Average73 °F79%29.95 "Hg
* Reported Apr 2 12:00 Noon — Apr 17 12:00 Noon, Shenzhen, Weather by CustomWeather, © 2014

Note: Actual official high and low records may vary slightly from our data, if they occured in-between our weather recording intervals... More about our weather records

Advertising

Historic Weather Conditions — Data for Previous 24 hours

 ConditionsComfort  
Time TempWeatherWind HumidityBarometerVisibility
12:00 PM
Apr 17
79 °FPassing clouds.10 mph79%29.89 "HgN/A
11:00 AM81 °FPassing clouds.6 mph74%29.92 "Hg5 mi
10:00 AM79 °FPassing clouds.6 mph79%29.92 "Hg4 mi
9:00 AM79 °FClear.3 mph79%29.92 "Hg4 mi
8:00 AM77 °FClear.8 mph74%29.89 "Hg4 mi
7:00 AM75 °FClear.6 mph78%29.89 "Hg4 mi
6:00 AM73 °FPassing clouds.6 mph83%29.86 "Hg5 mi
5:00 AM73 °FClear.3 mph83%29.86 "Hg5 mi
4:00 AM73 °FClear.3 mph83%29.86 "Hg5 mi
3:00 AM73 °FClear.3 mph83%29.86 "Hg5 mi
2:00 AM73 °FClear.6 mph83%29.86 "Hg5 mi
1:00 AM75 °FClear.6 mph78%29.89 "Hg5 mi
12:00 AM75 °FClear.8 mph78%29.89 "Hg5 mi
11:00 PM
Apr 16
75 °FClear.6 mph78%29.89 "Hg5 mi
10:00 PM75 °FClear.8 mph78%29.89 "Hg10 mi
9:00 PM75 °FClear.6 mph74%29.89 "Hg10 mi
8:00 PM77 °FClear.8 mph74%29.86 "Hg10 mi
7:00 PM77 °FClear.10 mph74%29.86 "Hg10 mi
6:00 PM77 °FSunny.10 mph79%29.83 "Hg10 mi
5:00 PM77 °FPassing clouds.10 mph79%29.83 "HgN/A
4:00 PM77 °FPassing clouds.8 mph79%29.83 "HgN/A
3:00 PM79 °FPassing clouds.8 mph74%29.86 "HgN/A
2:00 PM79 °FSunny.8 mph70%29.89 "Hg10 mi
1:00 PM79 °FSunny.13 mph70%29.89 "Hg10 mi
12:00 PM77 °FPassing clouds.8 mph74%29.95 "Hg5 mi
Weather by CustomWeather, © 2014

See weather overview